STARLINK-37322, 68715

Orbit data source: Space-Track

STARLINK-37322, 68715 is a payload satellite owned by SpaceX/Seattle (US) in LEO that was launched on Tue, 14 Apr 2026 UTC via an FALCON 9 launch vehicle from the Air Force Eastern Test Range (AFETR). Payload-class satellites include a variety of spacecraft equipped with specific instruments for various scientific and technological missions. These include communications satellites like Starlink; space stations such as the ISS; scientific satellites like the Hubble; Earth observation satellites from companies like Planet Labs, Umbra, and HawkEye 360; GPS; miniature CubeSats for education and research; and military/defense satellites.

Loading next visibility...
Identifier
68715, 2026-081S
Orbit
LEO
Country
Flag of USUS
Related business
Manufacturer
SpaceX/Seattle
Mission
Operational spacecraft
Bus & Motor
STARLINK V2MO, Unknown motor
Mass
575 kg wet, ~530 kg dry
Launch date (UTC)
2026-04-14 (2 months ago)
Launch vehicle
FALCON 9
Launch site
Air Force Eastern Test Range (AFETR)
Object type
Payload
Rocket body
Debris
Shape & HBR
Unknown shape, 14.5 m
Radar Cross Section
Large (>1 m²)

Expand to show TLE details & history
Last TLE update: 1 day ago

TLE from 1 day ago
0 STARLINK-37322
1 68715U 26081S   26170.58218685  .00018564  00000-0  55953-3 0  9997
2 68715  53.1583 280.0541 0001532  53.1793 306.9350 15.34381573 10358
Epoch: 2026-06-19T13:58Z
TLE epoch observation values (Epoch: 2026-06-19T13:58:20.943Z)
Latitude
-0.00003°
Longitude
162.65772°
Altitude
463.03 km
Speed
7.637 km/s
True Right ascension
18h 40m 12s
True Declination
0° 00' 00"
Sunlit
Object was in full shadow at epoch
Visualization orbit readout
Latitude
Unknown
Longitude
Unknown
Altitude
Unknown
Speed
Unknown
Apparent Right ascension
Unknown
Apparent Declination
Unknown
Sunlit
N/A
Visualization observer readout
Local Sidereal Time
07:18:22
Azimuth
Unknown
Elevation
Unknown
Doppler factor
Unknown
Orbital elements
Apogee altitude
464.063 km
Perigee altitude
461.967 km
Semi-major axis
6,841.152 km
Eccentricity
0.00015
Inclination
53.1583°
RAAN
280.0541°
Arg. of periapsis
53.1793°
True anomaly
306.92097°
Mean anomaly
306.935°
Eccentric anomaly
306.92798°
Mean motion
3.83574 °/min
Orbital period
93.85 mins
BSTAR
0.00055953
Loading maneuver chart data...
Computing Atmospheric mass density...
Loading historical data...
Loading historical data...
Loading historical data...
Loading historical data...
Loading historical data...
Loading historical data...
Loading historical data...

Documentation

Showing up to 5 results
|